Location: Cantaing
(50.1487°N, 3.1675°E)
Time: 06:14:19
(UTC+00:00)

Lacrosse 5 rocket - Pass Details

Date: 14 January 2026
Orbit: 402 x 482 km, 57.0° (Epoch: 10 February)

Event Time Altitude Azimuth Distance (km) Brightness Sun altitude
Exits shadow 04:44:42 21° 41° (NE) 1,153 3.3 -27.5°
Drops below altitude 10° 04:46:11 10° 52° (NE) 1,685 4.4 -27.3°
Sets 04:48:27 0° 60° (ENE) 2,569 5.6 -26.9°
